Regional Weather Roundup
Issued by NWS

Home | Current Version | Previous Version | Text Only | Print | Product List | Glossary Off
Versions: 1 2 3 4 5 6 7 8 9 10 11 12 13 14 15 16 17 18 19 20 21 22 23 24 25 26 27 28 29 30 31 32 33 34 35 36 37 38 39 40 41 42 43 44 45 46 47 48 49 50

000
ASUS45 KBOI 051210
RWRID
WEATHER ROUNDUP FOR IDAHO
NATIONAL WEATHER SERVICE BOISE ID
500 AM MST THU MAR 05 2015

NOTE: "FAIR" INDICATES FEW OR NO CLOUDS BELOW 12000 FEET
WITH NO SIGNIFICANT WEATHER AND/OR OBSTRUCTIONS TO VISIBILITY

IDZ012-014-051300-
SOUTHWEST IDAHO


CITY           SKY/WX    TMP DP  RH WIND       PRES   REMARKS
BOISE          PTCLDY    26  15  63 SE6       30.34R WCI  19
CALDWELL       PTCLDY    21   9  58 E6        30.38R WCI  14
MOUNTAIN HOME  PTCLDY    19  11  70 E8        30.35R WCI   9
$$

IDZ016-017-051300-
SOUTHCENTRAL IDAHO


CITY           SKY/WX    TMP DP  RH WIND       PRES   REMARKS
JEROME         PTCLDY    22  10  60 E6        30.34R WCI  14
TWIN FALLS     PTCLDY    29  13  51 S12       30.32R WCI  19
$$

IDZ019>023-051300-
SOUTHEAST IDAHO


CITY           SKY/WX    TMP DP  RH WIND       PRES   REMARKS
IDAHO FALLS    PTCLDY    21  13  71 SW6       30.33R WCI  13
POCATELLO      CLEAR     21  15  78 CALM      30.34R
REXBURG        PTCLDY    11   7  84 E6        30.32R WCI   1
$$

IDZ006-010-011-018-031-032-051300-
CENTRAL IDAHO MOUNTAINS


CITY           SKY/WX    TMP DP  RH WIND       PRES   REMARKS
MCCALL         CLEAR     15   8  73 CALM      30.28S
HAILEY         CLEAR     21  12  68 NW10      30.30S WCI  10
STANLEY          N/A      3  -3  76 S3        30.31S
SALMON         PTCLDY    16  10  79 CALM      30.32R
CHALLIS        CLEAR     19   8  62 CALM      30.29S
$$

IDZ002-004-006-007-026-051300-
NORTHERN IDAHO


CITY           SKY/WX    TMP DP  RH WIND       PRES   REMARKS
LEWISTON       MOCLDY    31  18  58 CALM      30.31S
LOWELL           N/A     25  19  78 VRB3      30.42R
COEUR D`ALENE  PTCLDY    23  16  74 NE7       30.27R WCI  15
MULLAN PASS    PTCLDY    24   0  35 SW7       30.16S WCI  16
$$


USA.gov is the U.S. government's official web portal to all federal, state and local government web resources and services.